M0HZQ-1 Weather Reports


time (UTC)temp
C
wind
direction
speed
KPH
gust
KPH
rain 1hr
cm
rain 24hr
cm
rain mn
cm
humidity
%
barometer
mb
20260506093924 13 0 0.0 0.0 0.00 0.00 0.00 46 1013.8
20260506092214 13 0 0.0 0.0 0.00 0.00 0.00 47 1013.8
20260506090509 13 0 0.0 0.0 0.00 0.00 0.00 48 1013.6
20260506084544 12 0 0.0 0.0 0.00 0.00 0.00 49 1013.6
20260506082609 12 0 0.0 0.0 0.00 0.00 0.00 51 1013.3
20260506080859 11 0 0.0 0.0 0.00 0.00 0.00 54 1013.5
20260506073337 12 0 0.0 0.0 0.00 0.00 0.00 54 1013.5
20260506071724 11 0 0.0 0.0 0.00 0.00 0.00 56 1013.4
20260506062354 10 0 0.0 0.0 0.00 0.00 0.00 58 1013.3
20260506060634 10 0 0.0 0.0 0.00 0.00 0.00 58 1013.5
20260506043944 10 0 0.0 0.0 0.00 0.00 0.00 60 1013.1
20260506042109 10 0 0.0 0.0 0.00 0.00 0.00 60 1013.0
20260506040224 10 0 0.0 0.0 0.00 0.00 0.00 60 1013.1
20260506034344 11 0 0.0 0.0 0.00 0.00 0.00 59 1013.0
20260506032714 10 0 0.0 0.0 0.00 0.00 0.00 59 1013.1
20260506030904 11 0 0.0 0.0 0.00 0.00 0.00 58 1013.0
20260506024957 11 0 0.0 0.0 0.00 0.00 0.00 59 1013.1
20260506023244 11 0 0.0 0.0 0.00 0.00 0.00 59 1013.3
20260506021534 11 0 0.0 0.0 0.00 0.00 0.00 60 1013.2
20260506015844 11 0 0.0 0.0 0.00 0.00 0.00 60 1013.3
20260506014004 11 0 0.0 0.0 0.00 0.00 0.00 60 1013.4
20260506012307 11 0 0.0 0.0 0.00 0.00 0.00 59 1013.3
20260506010329 12 0 0.0 0.0 0.00 0.00 0.00 59 1013.5
20260506004624 11 0 0.0 0.0 0.00 0.00 0.00 59 1013.4
20260506002827 11 0 0.0 0.0 0.00 0.00 0.00 59 1013.6
20260506001137 11 0 0.0 0.0 0.00 0.00 0.00 58 1013.8
20260505235509 12 0 0.0 0.0 0.00 0.00 0.00 58 1013.7
20260505233829 12 0 0.0 0.0 0.00 0.00 0.00 58 1013.4
20260505232149 11 0 0.0 0.0 0.00 0.00 0.00 58 1013.5
20260505230314 12 0 0.0 0.0 0.00 0.00 0.00 57 1013.8
20260505224329 12 0 0.0 0.0 0.00 0.00 0.00 57 1013.5
20260505222614 12 0 0.0 0.0 0.00 0.00 0.00 59 1013.6
20260505220849 13 0 0.0 0.0 0.00 0.00 0.00 59 1013.6
20260505215049 12 0 0.0 0.0 0.00 0.00 0.00 58 1013.6
20260505213434 12 0 0.0 0.0 0.00 0.00 0.00 58 1013.5
20260505211624 12 0 0.0 0.0 0.00 0.00 0.00 57 1013.4
20260505210004 13 0 0.0 0.0 0.00 0.00 0.00 52 1013.2
20260505204257 15 0 0.0 0.0 0.00 0.00 0.00 49 1013.2
20260505202414 15 0 0.0 0.0 0.00 0.00 0.00 49 1013.1
20260505200657 15 0 0.0 0.0 0.00 0.00 0.00 49 1012.9
20260505195014 15 0 0.0 0.0 0.00 0.00 0.00 48 1012.8
20260505193357 15 0 0.0 0.0 0.00 0.00 0.00 47 1012.5
20260505191604 15 0 0.0 0.0 0.00 0.00 0.00 46 1012.3
20260505185957 16 0 0.0 0.0 0.00 0.00 0.00 44 1012.1
20260505184229 17 0 0.0 0.0 0.00 0.00 0.00 43 1012.0
20260505182249 17 0 0.0 0.0 0.00 0.00 0.00 42 1011.9
20260505180337 17 0 0.0 0.0 0.00 0.00 0.00 41 1012.0
20260505174717 17 0 0.0 0.0 0.00 0.00 0.00 41 1012.0
20260505172857 18 0 0.0 0.0 0.00 0.00 0.00 40 1012.0
20260505170917 18 0 0.0 0.0 0.00 0.00 0.00 39 1012.0
20260505165137 18 0 0.0 0.0 0.00 0.00 0.00 40 1012.1
20260505163524 18 0 0.0 0.0 0.00 0.00 0.00 39 1012.0
20260505161914 18 0 0.0 0.0 0.00 0.00 0.00 39 1012.0
20260505152224 18 0 0.0 0.0 0.00 0.00 0.00 38 1012.1
20260505150417 18 0 0.0 0.0 0.00 0.00 0.00 38 1012.1
20260505124329 17 0 0.0 0.0 0.00 0.00 0.00 41 1012.9
20260505122634 18 0 0.0 0.0 0.00 0.00 0.00 40 1012.9
20260505120809 18 0 0.0 0.0 0.00 0.00 0.00 41 1012.8
20260505115114 17 0 0.0 0.0 0.00 0.00 0.00 43 1012.9
20260505113517 18 0 0.0 0.0 0.00 0.00 0.00 43 1013.0
20260505111609 17 0 0.0 0.0 0.00 0.00 0.00 44 1013.0
20260505100429 16 0 0.0 0.0 0.00 0.00 0.00 49 1013.4